Tracking 31027 objects as of 19-Jul-2025
HD Live streaming from Space Station
objects crossing your sky now

FENGYUN 1C DEB

Track FENGYUN 1C DEB now!
10-day predictions


NORAD ID: 46992
Int'l Code: 1999-025EZS
Perigee: 848.2 km
Apogee: 950.2 km
Inclination: 98.9 °
Period: 102.8 minutes
Semi major axis: 7270 km
RCS: Unknown
Launch date: May 10, 1999
Source: People's Republic of China (PRC)
Launch site: Taiyaun Space Center, China (TSC)

Note: This is SATELLITE DEBRIS
Your satellite tracking list
SPACEBEE-134
Track 1 satellite(s)




NASA's NSSDC Master Catalog

Two Line Element Set (TLE):
1 46992U 99025EZS 25197.23816861  .00000016  00000-0  39120-4 0  9990
2 46992  98.8714 188.1649 0070168 216.1038 143.5379 14.00502530588642
Source of the keplerian elements: AFSPC